Location: Kurfuerst-Ruprecht-Gymnasium 67433 Neustadt
(49.3564°N, 8.1585°E)
Time: 11:14:19
(UTC+01:00)

ISS - Visible Passes

Search period start: 17 February 2019 00:00
Search period end: 27 February 2019 00:00
Orbit: 403 x 411 km, 51.6° (Epoch: 17 February)

Date Brightness Start Highest point End Pass type
(mag) Time Alt. Az. Time Alt. Az. Time Alt. Az.
23 Feb -0.9 06:33:59 10° S 06:36:07 16° SE 06:38:16 10° E visible
25 Feb -2.1 06:26:26 10° SSW 06:29:22 31° SE 06:32:19 10° E visible
26 Feb -1.5 05:35:46 11° S 05:38:01 20° SE 05:40:30 10° E visible
